Location: Kaarina
(60.4167°N, 22.4167°E)
Time: 09:06:25
(UTC+03:00)

Cosmos 1340 - Pass Details

Date: 24 August 2019
Orbit: 503 x 506 km, 81.2° (Epoch: 14 September)

Event Time Altitude Azimuth Distance (km) Brightness Sun altitude
Exits shadow 23:49:59 - 221° (SW) 2,079 5.5 -15.7°
Reaches altitude 10° 23:50:55 10° 225° (SW) 1,719 5.1 -15.8°
Maximum altitude 23:54:29 39° 296° (WNW) 768 4.0 -16.0°
Drops below altitude 10° 23:58:05 10° 7° (N) 1,732 6.3 -16.2°
Sets 00:00:19 0° 15° (NNE) 2,623 7.1 -16.3°
